Hourly Weather Galata

Today, 27 November, Friday

Time Temperature Precipitation Wind Pressure Humidity
00:00 +6°C° 0 mm 1 mps 762 mmHg 53%
01:00 +6°C° 0 mm 1 mps 762 mmHg 54%
02:00 +5°C° 0 mm 2 mps 762 mmHg 55%
03:00 +5°C° 0 mm 2 mps 762 mmHg 56%
04:00 +5°C° 0 mm 2 mps 761 mmHg 58%
05:00 +5°C° 0 mm 2 mps 761 mmHg 59%
06:00 +5°C° 0 mm 2 mps 761 mmHg 59%
07:00 +5°C° 0 mm 2 mps 761 mmHg 59%
08:00 +5°C° 0 mm 2 mps 761 mmHg 59%
09:00 +7°C° 0 mm 3 mps 761 mmHg 53%
10:00 +8°C° 0 mm 3 mps 761 mmHg 46%
11:00 +10°C° 0 mm 3 mps 761 mmHg 40%
12:00 +11°C° 0 mm 3 mps 760 mmHg 39%
13:00 +12°C° 0 mm 3 mps 760 mmHg 39%
14:00 +13°C° 0 mm 3 mps 760 mmHg 38%
15:00 +11°C° 0 mm 3 mps 759 mmHg 45%
16:00 +10°C° 0 mm 3 mps 759 mmHg 52%
17:00 +9°C° 0 mm 3 mps 759 mmHg 59%
18:00 +8°C° 0 mm 3 mps 759 mmHg 58%
19:00 +8°C° 0 mm 3 mps 759 mmHg 57%
20:00 +7°C° 0 mm 3 mps 759 mmHg 56%
21:00 +7°C° 0 mm 3 mps 759 mmHg 55%
22:00 +5°C° 0 mm 3 mps 759 mmHg 54%
23:00 +5°C° 0 mm 3 mps 759 mmHg 52%

Tomorrow, 28 November, Saturday

Time Temperature Precipitation Wind Pressure Humidity
00:00 +5°C° 0 mm 3 mps 758 mmHg 53%
01:00 +6°C° 0 mm 2 mps 758 mmHg 54%
02:00 +5°C° 0 mm 2 mps 758 mmHg 54%
03:00 +5°C° 0 mm 2 mps 758 mmHg 54%
04:00 +5°C° 0 mm 2 mps 758 mmHg 54%
05:00 +4°C° 0 mm 2 mps 758 mmHg 53%
06:00 +4°C° 0 mm 2 mps 758 mmHg 53%
07:00 +4°C° 0 mm 2 mps 758 mmHg 52%
08:00 +4°C° 0 mm 2 mps 758 mmHg 52%
09:00 +6°C° 0 mm 2 mps 758 mmHg 47%
10:00 +9°C° 0 mm 1 mps 758 mmHg 42%
11:00 +11°C° 0 mm 1 mps 758 mmHg 37%
12:00 +11°C° 0 mm 1 mps 757 mmHg 36%
13:00 +12°C° 0 mm 1 mps 757 mmHg 35%
14:00 +13°C° 0 mm 1 mps 757 mmHg 34%
15:00 +11°C° 0 mm 1 mps 756 mmHg 38%
16:00 +10°C° 0 mm 1 mps 756 mmHg 42%
17:00 +9°C° 0 mm 1 mps 756 mmHg 46%
18:00 +8°C° 0 mm 2 mps 756 mmHg 48%
19:00 +7°C° 0 mm 2 mps 756 mmHg 50%
20:00 +7°C° 0 mm 2 mps 756 mmHg 53%
21:00 +7°C° 0 mm 2 mps 756 mmHg 55%
22:00 +7°C° 0 mm 2 mps 756 mmHg 58%
23:00 +7°C° 0 mm 3 mps 756 mmHg 61%

Day after tomorrow, 29 November, Sunday

Time Temperature Precipitation Wind Pressure Humidity
00:00 +7°C° 0 mm 3 mps 756 mmHg 63%
01:00 +7°C° 0 mm 3 mps 756 mmHg 64%
02:00 +5°C° 0 mm 3 mps 756 mmHg 66%
03:00 +5°C° 0 mm 3 mps 756 mmHg 65%
04:00 +5°C° 0 mm 3 mps 756 mmHg 63%
05:00 +5°C° 0 mm 3 mps 755 mmHg 62%
06:00 +6°C° 0 mm 2 mps 756 mmHg 61%
07:00 +6°C° 0 mm 2 mps 756 mmHg 60%
08:00 +7°C° 0 mm 1 mps 756 mmHg 59%
09:00 +8°C° 0 mm 1 mps 756 mmHg 55%
10:00 +9°C° 0 mm 1 mps 756 mmHg 51%
11:00 +10°C° 0 mm 0 mps 757 mmHg 47%
12:00 +11°C° 0 mm 1 mps 756 mmHg 51%
13:00 +11°C° 0 mm 1 mps 756 mmHg 54%
14:00 +11°C° 0 mm 1 mps 756 mmHg 57%
15:00 +11°C° 0.2 mm 1 mps 756 mmHg 64%
16:00 +9°C° 0.2 mm 2 mps 756 mmHg 71%
17:00 +9°C° 0.2 mm 2 mps 755 mmHg 79%
18:00 +9°C° 0.2 mm 2 mps 755 mmHg 83%
19:00 +9°C° 0.2 mm 2 mps 755 mmHg 87%
20:00 +9°C° 0.2 mm 2 mps 755 mmHg 92%
21:00 +10°C° 0.1 mm 3 mps 755 mmHg 91%
22:00 +10°C° 0.1 mm 3 mps 755 mmHg 90%
23:00 +10°C° 0.1 mm 3 mps 755 mmHg 89%

30 November, Monday

Time Temperature Precipitation Wind Pressure Humidity
00:00 +10°C° 0.1 mm 3 mps 755 mmHg 87%
01:00 +11°C° 0.1 mm 3 mps 755 mmHg 85%
02:00 +12°C° 0.1 mm 2 mps 755 mmHg 83%
03:00 +10°C° 0 mm 2 mps 755 mmHg 82%
04:00 +10°C° 0 mm 2 mps 754 mmHg 82%
05:00 +11°C° 0 mm 1 mps 754 mmHg 82%
06:00 +11°C° 0.5 mm 1 mps 754 mmHg 86%
07:00 +10°C° 0.5 mm 1 mps 755 mmHg 89%
08:00 +10°C° 0.5 mm 1 mps 755 mmHg 93%
09:00 +9°C° 0.7 mm 2 mps 755 mmHg 93%
10:00 +8°C° 0.7 mm 2 mps 755 mmHg 93%
11:00 +8°C° 0.7 mm 2 mps 755 mmHg 94%
12:00 +8°C° 1.3 mm 3 mps 755 mmHg 94%
13:00 +7°C° 1.3 mm 4 mps 755 mmHg 94%
14:00 +7°C° 1.3 mm 4 mps 755 mmHg 93%
15:00 +6°C° 1.5 mm 5 mps 755 mmHg 93%
16:00 +5°C° 1.5 mm 6 mps 756 mmHg 92%
17:00 +4°C° 1.5 mm 6 mps 756 mmHg 91%
18:00 +4°C° 0.5 mm 7 mps 756 mmHg 91%
19:00 +3°C° 0.5 mm 7 mps 757 mmHg 90%
20:00 +3°C° 0.5 mm 7 mps 757 mmHg 89%
21:00 +3°C° 0.2 mm 7 mps 757 mmHg 89%
22:00 +3°C° 0.2 mm 7 mps 757 mmHg 89%
23:00 +2°C° 0.2 mm 7 mps 757 mmHg 89%

1 December, Tuesday

Time Temperature Precipitation Wind Pressure Humidity
00:00 +1°C° 0.2 mm 8 mps 757 mmHg 89%
01:00 +1°C° 0.2 mm 8 mps 757 mmHg 90%
02:00 +1°C° 0.2 mm 8 mps 757 mmHg 90%
03:00 +2°C° 0.2 mm 8 mps 758 mmHg 90%
04:00 +2°C° 0.2 mm 8 mps 758 mmHg 90%
05:00 +2°C° 0.2 mm 8 mps 758 mmHg 89%
06:00 +2°C° 0.1 mm 8 mps 758 mmHg 89%
07:00 +2°C° 0.1 mm 8 mps 758 mmHg 88%
08:00 +2°C° 0.1 mm 9 mps 758 mmHg 87%
09:00 +2°C° 0 mm 8 mps 759 mmHg 85%
10:00 +2°C° 0 mm 8 mps 759 mmHg 84%
11:00 +2°C° 0 mm 8 mps 759 mmHg 82%
12:00 +2°C° 0 mm 8 mps 759 mmHg 82%
13:00 +2°C° 0 mm 9 mps 759 mmHg 82%
14:00 +2°C° 0 mm 9 mps 759 mmHg 81%
15:00 +2°C° 0 mm 9 mps 759 mmHg 82%
16:00 +2°C° 0 mm 9 mps 759 mmHg 83%
17:00 +2°C° 0 mm 9 mps 759 mmHg 84%
18:00 +2°C° 0 mm 9 mps 760 mmHg 84%
19:00 +2°C° 0 mm 8 mps 760 mmHg 84%
20:00 +2°C° 0 mm 8 mps 760 mmHg 85%
21:00 +1°C° 0 mm 8 mps 760 mmHg 84%
22:00 +2°C° 0 mm 7 mps 760 mmHg 84%
23:00 +2°C° 0 mm 7 mps 760 mmHg 83%

2 December, Wednesday

Time Temperature Precipitation Wind Pressure Humidity
00:00 +2°C° 0 mm 7 mps 760 mmHg 83%
01:00 +2°C° 0 mm 7 mps 760 mmHg 84%
02:00 0°C° 0 mm 7 mps 760 mmHg 84%
03:00 +1°C° 0 mm 6 mps 760 mmHg 84%
04:00 +1°C° 0 mm 6 mps 759 mmHg 85%
05:00 +1°C° 0 mm 6 mps 759 mmHg 86%
06:00 +1°C° 0 mm 6 mps 759 mmHg 86%
07:00 +1°C° 0 mm 6 mps 759 mmHg 87%
08:00 +1°C° 0 mm 6 mps 759 mmHg 87%
09:00 +1°C° 0 mm 6 mps 759 mmHg 83%
10:00 +2°C° 0 mm 6 mps 759 mmHg 80%
11:00 +3°C° 0 mm 6 mps 759 mmHg 76%
12:00 +3°C° 0 mm 6 mps 759 mmHg 74%
13:00 +3°C° 0 mm 6 mps 758 mmHg 72%
14:00 +3°C° 0 mm 6 mps 758 mmHg 71%
15:00 +3°C° 0 mm 6 mps 757 mmHg 74%
16:00 +2°C° 0 mm 6 mps 757 mmHg 77%
17:00 +2°C° 0 mm 6 mps 757 mmHg 80%
18:00 +2°C° 0 mm 6 mps 757 mmHg 81%
19:00 +1°C° 0 mm 6 mps 757 mmHg 82%
20:00 +1°C° 0 mm 6 mps 757 mmHg 83%
21:00 +1°C° 0 mm 6 mps 757 mmHg 85%
22:00 +2°C° 0 mm 5 mps 757 mmHg 87%
23:00 +2°C° 0 mm 5 mps 756 mmHg 90%
Show more